• In Hungary
  • List of Countries
  • For 7 days
  • Water Temperature
  • Satellite Maps
  • Weather Map
  • News
  • Weather Widgets
  • user-avatar
    Login

    Hourly Weather Vitim

    Today, 23 February, Friday

    Time Temperature Precipitation Wind Pressure Humidity
    00:00 -23°C° 0 mm 1 mps 719 mmHg 84%
    01:00 -23°C° 0 mm 1 mps 720 mmHg 84%
    02:00 -24°C° 0 mm 1 mps 720 mmHg 84%
    03:00 -24°C° 0 mm 1 mps 720 mmHg 84%
    04:00 -24°C° 0 mm 1 mps 721 mmHg 83%
    05:00 -24°C° 0 mm 1 mps 721 mmHg 83%
    06:00 -24°C° 0 mm 1 mps 721 mmHg 83%
    07:00 -24°C° 0 mm 1 mps 722 mmHg 83%
    08:00 -24°C° 0 mm 1 mps 722 mmHg 82%
    09:00 -21°C° 0 mm 1 mps 722 mmHg 79%
    10:00 -19°C° 0 mm 1 mps 722 mmHg 76%
    11:00 -17°C° 0 mm 1 mps 722 mmHg 73%
    12:00 -16°C° 0 mm 1 mps 722 mmHg 72%
    13:00 -15°C° 0 mm 1 mps 722 mmHg 71%
    14:00 -14°C° 0 mm 1 mps 722 mmHg 70%
    15:00 -16°C° 0 mm 1 mps 722 mmHg 75%
    16:00 -17°C° 0 mm 1 mps 722 mmHg 80%
    17:00 -18°C° 0 mm 0 mps 723 mmHg 85%
    18:00 -19°C° 0 mm 1 mps 723 mmHg 86%
    19:00 -20°C° 0 mm 1 mps 723 mmHg 86%
    20:00 -21°C° 0 mm 1 mps 723 mmHg 86%
    21:00 -21°C° 0 mm 1 mps 724 mmHg 85%
    22:00 -22°C° 0 mm 1 mps 724 mmHg 84%
    23:00 -22°C° 0 mm 1 mps 724 mmHg 84%

    Tomorrow, 24 February, Saturday

    Time Temperature Precipitation Wind Pressure Humidity
    00:00 -22°C° 0 mm 1 mps 724 mmHg 83%
    01:00 -23°C° 0 mm 1 mps 724 mmHg 83%
    02:00 -23°C° 0 mm 1 mps 724 mmHg 82%
    03:00 -23°C° 0 mm 1 mps 724 mmHg 82%
    04:00 -23°C° 0 mm 1 mps 724 mmHg 82%
    05:00 -23°C° 0 mm 1 mps 723 mmHg 82%
    06:00 -23°C° 0 mm 1 mps 724 mmHg 81%
    07:00 -23°C° 0 mm 1 mps 724 mmHg 81%
    08:00 -23°C° 0 mm 1 mps 724 mmHg 80%
    09:00 -21°C° 0 mm 1 mps 723 mmHg 77%
    10:00 -19°C° 0 mm 1 mps 723 mmHg 73%
    11:00 -16°C° 0 mm 0 mps 723 mmHg 70%
    12:00 -16°C° 0 mm 1 mps 723 mmHg 70%
    13:00 -15°C° 0 mm 1 mps 722 mmHg 70%
    14:00 -14°C° 0 mm 1 mps 722 mmHg 70%
    15:00 -15°C° 0 mm 1 mps 722 mmHg 76%
    16:00 -16°C° 0 mm 0 mps 722 mmHg 81%
    17:00 -17°C° 0 mm 0 mps 722 mmHg 87%
    18:00 -18°C° 0 mm 1 mps 722 mmHg 88%
    19:00 -20°C° 0 mm 1 mps 722 mmHg 88%
    20:00 -21°C° 0 mm 1 mps 722 mmHg 89%
    21:00 -21°C° 0 mm 1 mps 722 mmHg 88%
    22:00 -21°C° 0 mm 1 mps 722 mmHg 87%
    23:00 -22°C° 0 mm 1 mps 722 mmHg 86%

    Day after tomorrow, 25 February, Sunday

    Time Temperature Precipitation Wind Pressure Humidity
    00:00 -22°C° 0 mm 1 mps 722 mmHg 86%
    01:00 -22°C° 0 mm 1 mps 722 mmHg 85%
    02:00 -22°C° 0 mm 1 mps 722 mmHg 85%
    03:00 -23°C° 0 mm 1 mps 722 mmHg 85%
    04:00 -23°C° 0 mm 1 mps 722 mmHg 84%
    05:00 -23°C° 0 mm 1 mps 722 mmHg 84%
    06:00 -23°C° 0 mm 1 mps 722 mmHg 83%
    07:00 -23°C° 0 mm 1 mps 722 mmHg 83%
    08:00 -23°C° 0 mm 1 mps 722 mmHg 82%
    09:00 -20°C° 0 mm 1 mps 722 mmHg 79%
    10:00 -18°C° 0 mm 1 mps 722 mmHg 76%
    11:00 -16°C° 0 mm 1 mps 722 mmHg 73%
    12:00 -15°C° 0 mm 1 mps 721 mmHg 73%
    13:00 -14°C° 0 mm 1 mps 721 mmHg 73%
    14:00 -13°C° 0 mm 1 mps 720 mmHg 73%
    15:00 -14°C° 0 mm 1 mps 720 mmHg 78%
    16:00 -15°C° 0 mm 1 mps 720 mmHg 83%
    17:00 -16°C° 0 mm 1 mps 720 mmHg 88%
    18:00 -17°C° 0 mm 1 mps 721 mmHg 89%
    19:00 -18°C° 0 mm 1 mps 721 mmHg 90%
    20:00 -19°C° 0 mm 1 mps 722 mmHg 90%
    21:00 -20°C° 0 mm 1 mps 722 mmHg 90%
    22:00 -20°C° 0 mm 1 mps 722 mmHg 90%
    23:00 -20°C° 0 mm 1 mps 722 mmHg 89%

    26 February, Monday

    Time Temperature Precipitation Wind Pressure Humidity
    00:00 -20°C° 0 mm 1 mps 722 mmHg 89%
    01:00 -21°C° 0 mm 1 mps 722 mmHg 89%
    02:00 -21°C° 0 mm 1 mps 723 mmHg 88%
    03:00 -21°C° 0 mm 1 mps 723 mmHg 88%
    04:00 -21°C° 0 mm 1 mps 723 mmHg 88%
    05:00 -22°C° 0 mm 1 mps 722 mmHg 88%
    06:00 -21°C° 0 mm 1 mps 723 mmHg 87%
    07:00 -21°C° 0 mm 1 mps 723 mmHg 87%
    08:00 -21°C° 0 mm 1 mps 723 mmHg 86%
    09:00 -19°C° 0 mm 1 mps 723 mmHg 83%
    10:00 -17°C° 0 mm 1 mps 723 mmHg 80%
    11:00 -15°C° 0 mm 1 mps 723 mmHg 77%
    12:00 -14°C° 0 mm 1 mps 723 mmHg 76%
    13:00 -13°C° 0 mm 1 mps 722 mmHg 75%
    14:00 -13°C° 0 mm 1 mps 722 mmHg 75%
    15:00 -13°C° 0 mm 1 mps 722 mmHg 79%
    16:00 -14°C° 0 mm 1 mps 722 mmHg 83%
    17:00 -15°C° 0 mm 0 mps 722 mmHg 87%
    18:00 -16°C° 0 mm 1 mps 723 mmHg 88%
    19:00 -17°C° 0 mm 1 mps 723 mmHg 89%
    20:00 -18°C° 0 mm 1 mps 724 mmHg 90%
    21:00 -19°C° 0 mm 1 mps 724 mmHg 90%
    22:00 -19°C° 0 mm 1 mps 724 mmHg 89%
    23:00 -19°C° 0 mm 1 mps 724 mmHg 89%

    27 February, Tuesday

    Time Temperature Precipitation Wind Pressure Humidity
    00:00 -20°C° 0 mm 1 mps 724 mmHg 89%
    01:00 -20°C° 0 mm 1 mps 724 mmHg 89%
    02:00 -20°C° 0 mm 1 mps 724 mmHg 89%
    03:00 -20°C° 0 mm 1 mps 724 mmHg 89%
    04:00 -20°C° 0 mm 1 mps 724 mmHg 89%
    05:00 -21°C° 0 mm 1 mps 724 mmHg 89%
    06:00 -21°C° 0 mm 1 mps 724 mmHg 88%
    07:00 -20°C° 0 mm 1 mps 725 mmHg 88%
    08:00 -20°C° 0 mm 1 mps 725 mmHg 88%
    09:00 -19°C° 0 mm 1 mps 725 mmHg 84%
    10:00 -17°C° 0 mm 1 mps 724 mmHg 80%
    11:00 -15°C° 0 mm 1 mps 724 mmHg 76%
    12:00 -14°C° 0 mm 1 mps 724 mmHg 75%
    13:00 -13°C° 0 mm 1 mps 723 mmHg 74%
    14:00 -13°C° 0 mm 1 mps 723 mmHg 73%
    15:00 -13°C° 0 mm 1 mps 723 mmHg 77%
    16:00 -14°C° 0 mm 1 mps 723 mmHg 81%
    17:00 -15°C° 0 mm 1 mps 723 mmHg 85%
    18:00 -17°C° 0 mm 1 mps 723 mmHg 86%
    19:00 -18°C° 0 mm 1 mps 724 mmHg 87%
    20:00 -19°C° 0 mm 1 mps 724 mmHg 89%
    21:00 -20°C° 0 mm 1 mps 724 mmHg 88%
    22:00 -20°C° 0 mm 1 mps 724 mmHg 88%
    23:00 -21°C° 0 mm 1 mps 724 mmHg 88%

    28 February, Wednesday

    Time Temperature Precipitation Wind Pressure Humidity
    00:00 -21°C° 0 mm 1 mps 724 mmHg 88%
    01:00 -21°C° 0 mm 1 mps 724 mmHg 88%
    02:00 -22°C° 0 mm 1 mps 724 mmHg 88%
    03:00 -22°C° 0 mm 1 mps 724 mmHg 87%
    04:00 -22°C° 0 mm 1 mps 724 mmHg 87%
    05:00 -23°C° 0 mm 1 mps 724 mmHg 87%
    06:00 -23°C° 0 mm 1 mps 724 mmHg 87%
    07:00 -23°C° 0 mm 1 mps 724 mmHg 86%
    08:00 -23°C° 0 mm 1 mps 724 mmHg 86%
    09:00 -20°C° 0 mm 1 mps 724 mmHg 83%
    10:00 -18°C° 0 mm 1 mps 724 mmHg 79%
    11:00 -16°C° 0 mm 1 mps 723 mmHg 76%
    12:00 -16°C° 0 mm 1 mps 723 mmHg 75%
    13:00 -15°C° 0 mm 1 mps 722 mmHg 74%
    14:00 -14°C° 0 mm 1 mps 722 mmHg 73%
    15:00 -15°C° 0 mm 1 mps 721 mmHg 77%
    16:00 -16°C° 0 mm 1 mps 721 mmHg 81%
    17:00 -17°C° 0 mm 1 mps 721 mmHg 85%
    18:00 -19°C° 0 mm 1 mps 721 mmHg 86%
    19:00 -20°C° 0 mm 1 mps 721 mmHg 87%
    20:00 -22°C° 0 mm 1 mps 721 mmHg 88%
    21:00 -22°C° 0 mm 1 mps 721 mmHg 88%
    22:00 -23°C° 0 mm 1 mps 721 mmHg 88%
    23:00 -23°C° 0 mm 1 mps 721 mmHg 88%
    Show more